Regional Weather Roundup
Issued by NWS

Home | Current Version | Previous Version | Graphics & Text | Print | Product List | Glossary On
Versions: 1 2 3 4 5 6 7 8 9 10 11 12 13 14 15 16 17 18 19 20 21 22 23 24 25 26 27 28 29 30 31 32 33 34 35 36 37 38 39 40 41 42 43 44 45 46 47 48 49 50
000
ASUS45 KBOU 211410
RWRCO

WEATHER ROUNDUP FOR COLORADO
NATIONAL WEATHER SERVICE PUEBLO CO
700 AM MST WED FEB 21 2018

NOTE: "FAIR" INDICATES FEW OR NO CLOUDS BELOW 12000 FEET WITH NO
SIGNIFICANT WEATHER AND/OR OBSTRUCTIONS TO VISIBILITY.

COZ001>005-013-030-031-211500-
...NORTHWEST COLORADO...

CITY           SKY/WX    TMP DP  RH WIND       PRES   REMARKS
CRAIG          CLEAR    -17 -24  70 CALM      30.14S
HAYDEN         CLEAR     -5 -11  75 SE14      30.12R WCI -25
MEEKER         CLEAR    -12 -18  74 CALM      30.11S
RABBIT EARS PA NOT AVBL
STEAMBOAT SPGS   N/A     -9 -13  83 CALM      30.11R
WALDEN         FAIR      -4  -9  77 SE7       30.04S WCI -18
$$

COZ006>008-011-211500-
...WEST CENTRAL VALLEYS...

CITY           SKY/WX    TMP DP  RH WIND       PRES   REMARKS
GRAND JUNCTION CLEAR     18  10  71 SE12      30.16R WCI   5
MONTROSE       CLEAR      6   1  80 S7        30.18S WCI  -6
EAGLE          CLEAR      1  -4  79 CALM      30.19R
RIFLE          PTCLDY     6   1  80 CALM      30.17S
DELTA          NOT AVBL
NUCLA          FAIR      12   1  62 E8        30.16R WCI   1
$$

COZ017>023-064>068-211500-
...SOUTHWEST COLORADO...

CITY           SKY/WX    TMP DP  RH WIND       PRES   REMARKS
DURANGO        CLEAR      9   3  77 CALM      30.11S
CORTEZ         CLEAR      7   2  80 CALM      30.11S
PAGOSA SPRINGS FAIR       3   0  87 CALM      30.11F
TELLURIDE      PTCLDY    11  -4  49 CALM      30.02S
WOLF CREEK PAS   N/A      0  -4  85 S15G24    30.00R WCI -20
$$

COZ009-010-012-014-032>034-037-058>063-211500-
...CENTRAL COLORADO...

CITY           SKY/WX    TMP DP  RH WIND       PRES   REMARKS
ASPEN          CLEAR     -8 -13  78 S3        30.05S
BUENA VISTA    FAIR      -1 -11  64 W6        30.10R WCI -13
COPPER MTN     CLEAR      1 -15  46 S18       29.87S WCI -19
BERTHOUD PASS  FAIR      -8 -18  59 W15G25    29.84R WCI -29
COTTONWOOD PAS CLEAR     10  -4  52 SE3       29.99R
GUNNISON       CLEAR     -7 -11  83 VRB3      30.16R
KREMMLING      FLURRIES   0  -8  71 CALM      30.14R
LEADVILLE      CLEAR    -13 -18  78 VRB3      29.97R
MONARCH PASS   CLEAR     -4  -8  84 SW17G23   30.01R WCI -26
SALIDA         FAIR       7  -2  66 N8        30.17S WCI  -6
SUNLIGHT       CLEAR     -4  -8  84 SW8       29.98S WCI -19
WILKERSON PASS CLEAR      0  -6  78 SW20G30   29.92R WCI -22
$$

COZ069>075-211500-
...SAN LUIS VALLEY/SANGRE DE CRISTO MOUNTAINS...

CITY           SKY/WX    TMP DP  RH WIND       PRES   REMARKS
ALAMOSA        PTCLDY     2  -4  76 N7        30.12R WCI -11
DEL NORTE      FAIR       1  -8  66 W9        30.12R WCI -14
LA VETA PASS   LGT SNOW  10   5  79 S20G29    30.11R WCI  -8
SAGUACHE       CLEAR      1  -6  71 NW13      30.12S WCI -16
$$

COZ035-036-038>040-211500-
...NORTHERN COLORADO FRONT RANGE...

CITY           SKY/WX    TMP DP  RH WIND       PRES   REMARKS
DENVER INTL AP PTCLDY     1  -4  79 SW10      30.18S WCI -15
DMNS CITY PARK NOT AVBL
AURORA         PTCLDY     0  -3  87 W3        30.18R
FRONT RANGE AP FAIR       3  -1  83 SW8       30.19R WCI -10
ERIE MUNI ARPT FAIR      -7 -11  82 CALM      30.28R
BOULDER MUN AP FAIR       0  -4  85 CALM      30.20S
CENTENNIAL     PTCLDY     2  -2  83 SW3       30.15R
BROOMFIELD     PTCLDY     3   1  92 W3        30.17S
LOVELAND       CLEAR     -3  -7  82 SE6       30.22S WCI -15
LONGMONT       FAIR      -3  -8  78 CALM      30.24R
$$

COZ041-046-047-076>085-087-088-211500-
...PIKES PEAK/PALMER DIVIDE AND SOUTHERN FOOTHILLS...

CITY           SKY/WX    TMP DP  RH WIND       PRES   REMARKS
COLO. SPRINGS  CLEAR      2  -2  83 N8        30.18R WCI -12
A. F. ACADEMY  CLEAR     -8 -13  77 N9        30.15R WCI -25
SCHRIEVER AFB  NOT AVBL
CHEYENNE MTN   NOT AVBL
ELLICOTT         N/A    N/A N/A N/A NE5         N/A
FALCON         FAIR       2  -1  87 MISG      30.15R
FORT CARSON    CLEAR      5   0  79 N12       30.19R WCI -10
LIMON          CLEAR     -5  -9  83 N7        30.23R WCI -19
MONUMENT HILL  CLEAR      3   0  85 S13       30.12R WCI -14
CANON CITY     CLEAR      9   3  78 W9        30.22S WCI  -5
WALSENBURG     FAIR       7   5  92 SW6       30.20R WCI  -3
TRINIDAD       CLEAR      5   1  83 NW7       30.21R WCI  -7
$$

COZ042>045-048>051-090-091-211500-
...NORTHEAST COLORADO...

CITY           SKY/WX    TMP DP  RH WIND       PRES   REMARKS
GREELEY ARPT   NOT AVBL
AKRON          CLEAR      9   0  67 SW8       30.25R WCI  -3
BURLINGTON     CLEAR     -5 -10  79 SW6       30.32R WCI -18
WRAY           FAIR       3  -2  78 W6        30.35R WCI  -8
YUMA           NOT AVBL
STERLING       FAIR      -4  -8  84 SW3       30.30R
HOLYOKE        FAIR       1  -4  78 W6        30.33R WCI -10
FORT MORGAN    FAIR      -5 -10  79 W6        30.27R WCI -17
$$

COZ086-089-092>099-211500-
...SOUTHEAST COLORADO...

CITY           SKY/WX    TMP DP  RH WIND       PRES   REMARKS
PUEBLO         CLEAR      7   2  80 CALM      30.28R
LA JUNTA       CLEAR      6   1  80 CALM      30.33R
LAMAR          CLEAR     -2  -7  79 SW5       30.37R WCI -12
SPRINGFIELD      N/A     10   3  73 CALM      30.32R
$$




USA.gov is the U.S. government's official web portal to all federal, state and local government web resources and services.